Weather History for Romeoville, IL

Change the Weather History Date:

Thursday, January 23, 2014

  Actual Average Record
Temperature  
Mean Temperature -2 °F 23 °F  
Max Temperature 6 °F 31 °F 49 °F (2002)
Min Temperature -11 °F 16 °F -11 °F (2014)
Degree Days  
Heating Degree Days 67 42  
Month to date heating degree days 1130 963  
Since 1 July heating degree days 3774 3349  
Cooling Degree Days 0 0  
Month to date cooling degree days 0 0  
Year to date cooling degree days 0 0  
Moisture  
Dew Point -10 °F    
Average Humidity 66    
Maximum Humidity 74    
Minimum Humidity 59    
Precipitation  
Precipitation 0.00 in 0.05 in 0.72 in (1999)
Month to date precipitation 2.35 1.52  
Year to date precipitation 2.35 1.52  
Snow  
Snow 0.00 in 0.30 in 1.10 in (2008)
Month to date snowfall 25.4 8.1  
Since 1 July snowfall 38.5 18.3  
Snow Depth 2.00 in    
Sea Level Pressure  
Sea Level Pressure 30.46 in    
Wind  
Wind Speed 15 mph (WNW)    
Max Wind Speed 20 mph    
Max Gust Speed 24 mph    
Visibility 10 miles    
Events      
T = Trace of Precipitation, MM = Missing Value Source: NWS Daily Summary

Daily Weather History Graph

Daily Weather History Graph

Search for Another Location

Airport:

Trip Planner

Search our weather history database for the weather conditions in past years. The results will help you decide how hot, cold, wet, or windy it might be!

Date:

Astronomy

Jan. 23, 2014 Rise Set
Actual Time 7:12 AM CST 4:56 PM CST
Civil Twilight 6:42 AM CST 5:26 PM CST
Nautical Twilight 6:08 AM CST 6:00 PM CST
Astronomical Twilight 5:35 AM CST 6:33 PM CST
Moon No Moon Rise 10:40 AM CST (1/23)
Length of Visible Light 10h 44m
Length of Day
9h 44m
Waning Gibbous, 55% of the Moon is Illuminated
Jan 23
Waning Gibbous
Jan 23
Last Quarter
Jan 30
New
Feb 6
First Quarter
Feb 14
Full

Hourly Weather History & Observations

Time (CST) Temp. Windchill Dew Point Humidity Pressure Visibility Wind Dir Wind Speed Gust Speed Precip Events Conditions
12:15 AM -0.2 °F -20.9 °F -11.6 °F 59% 30.20 in 10.0 mi NW 17.3 mph 21.9 mph N/A   Clear
12:35 AM -0.6 °F -21.4 °F -11.7 °F 59% 30.21 in 10.0 mi NW 17.3 mph 23.0 mph N/A   Clear
12:55 AM -0.8 °F -19.6 °F -12.1 °F 59% 30.22 in 10.0 mi WNW 13.8 mph 21.9 mph N/A   Clear
1:15 AM -1.3 °F -20.3 °F -12.1 °F 60% 30.23 in 10.0 mi WNW 13.8 mph - N/A   Clear
1:35 AM -1.8 °F -21.7 °F -11.7 °F 63% 30.24 in 10.0 mi WNW 15.0 mph 18.4 mph N/A   Clear
1:55 AM -2.2 °F -23.5 °F -11.7 °F 64% 30.25 in 10.0 mi WNW 17.3 mph - N/A   Clear
2:15 AM -2.2 °F -22.2 °F -12.1 °F 63% 30.26 in 10.0 mi WNW 15.0 mph 20.7 mph N/A   Clear
2:35 AM -2.6 °F -21.9 °F -12.3 °F 63% 30.27 in 10.0 mi NW 13.8 mph 19.6 mph N/A   Clear
2:55 AM -2.7 °F -22.9 °F -12.5 °F 63% 30.28 in 10.0 mi WNW 15.0 mph - N/A   Clear
3:15 AM -3.1 °F -21.8 °F -12.5 °F 64% 30.28 in 10.0 mi WNW 12.7 mph 17.3 mph N/A   Clear
3:35 AM -3.3 °F -22.8 °F -12.6 °F 64% 30.28 in 10.0 mi WNW 13.8 mph - N/A   Clear
3:55 AM -3.3 °F -24.2 °F -12.5 °F 65% 30.29 in 10.0 mi WNW 16.1 mph - N/A   Clear
4:15 AM -3.3 °F -24.2 °F -12.8 °F 64% 30.30 in 10.0 mi NW 16.1 mph 21.9 mph N/A   Clear
4:35 AM -3.5 °F -25.1 °F -13.0 °F 64% 30.32 in 10.0 mi NW 17.3 mph - N/A   Clear
4:55 AM -3.6 °F -24.0 °F -12.8 °F 65% 30.33 in 10.0 mi WNW 15.0 mph - N/A   Clear
5:15 AM -3.6 °F -23.3 °F -13.0 °F 64% 30.34 in 10.0 mi WNW 13.8 mph - N/A   Clear
5:35 AM -4.0 °F -23.0 °F -13.0 °F 65% 30.35 in 10.0 mi WNW 12.7 mph 19.6 mph N/A   Clear
5:55 AM -4.0 °F -24.5 °F -12.8 °F 66% 30.36 in 10.0 mi WNW 15.0 mph - N/A   Clear
6:15 AM -4.0 °F -23.0 °F -13.0 °F 65% 30.37 in 10.0 mi WNW 12.7 mph 20.7 mph N/A   Clear
6:35 AM -4.0 °F -23.0 °F -13.0 °F 65% 30.39 in 10.0 mi WNW 12.7 mph - N/A   Clear
6:55 AM -3.8 °F -25.6 °F -12.8 °F 65% 30.39 in 10.0 mi WNW 17.3 mph 24.2 mph N/A   Clear
7:15 AM -4.0 °F -26.4 °F -13.0 °F 65% 30.40 in 10.0 mi NW 18.4 mph - N/A   Clear
7:35 AM -3.6 °F -24.7 °F -12.6 °F 65% 30.42 in 10.0 mi WNW 16.1 mph 24.2 mph N/A   Clear
7:55 AM -3.5 °F -23.1 °F -12.3 °F 66% 30.42 in 10.0 mi NW 13.8 mph - N/A   Clear
8:15 AM -2.7 °F -23.5 °F -11.7 °F 65% 30.43 in 10.0 mi NW 16.1 mph 23.0 mph N/A   Clear
8:35 AM -2.2 °F -23.5 °F -11.4 °F 65% 30.44 in 10.0 mi NW 17.3 mph 23.0 mph N/A   Clear
8:55 AM -1.8 °F -23.0 °F -11.0 °F 65% 30.45 in 10.0 mi NW 17.3 mph 24.2 mph N/A   Clear
9:15 AM -1.3 °F -21.7 °F -10.3 °F 66% 30.46 in 10.0 mi NW 16.1 mph 23.0 mph N/A   Clear
9:35 AM -0.4 °F -17.6 °F -9.8 °F 65% 30.47 in 10.0 mi NW 11.5 mph 24.2 mph N/A   Scattered Clouds
9:55 AM 0.5 °F -18.0 °F -9.0 °F 64% 30.48 in 10.0 mi NW 13.8 mph 24.2 mph N/A   Mostly Cloudy
10:15 AM 1.2 °F -19.1 °F -8.5 °F 64% 30.49 in 10.0 mi WNW 17.3 mph 21.9 mph N/A   Scattered Clouds
10:35 AM 1.8 °F -17.1 °F -8.0 °F 64% 30.50 in 10.0 mi NW 15.0 mph - N/A   Clear
10:55 AM 2.8 °F -15.7 °F -6.7 °F 64% 30.50 in 10.0 mi NW 15.0 mph 19.6 mph N/A   Mostly Cloudy
11:15 AM 3.7 °F -15.8 °F -4.9 °F 67% 30.50 in 5.0 mi NW 17.3 mph 21.9 mph N/A   Haze
11:35 AM 4.1 °F -15.3 °F -4.5 °F 67% 30.50 in 10.0 mi NW 17.3 mph - N/A   Mostly Cloudy
11:55 AM 4.1 °F -15.9 °F -3.6 °F 70% 30.51 in 10.0 mi NW 18.4 mph - N/A   Scattered Clouds
12:15 PM 4.1 °F -15.3 °F -3.5 °F 71% 30.51 in 4.0 mi NW 17.3 mph - N/A   Haze
12:35 PM 4.8 °F -11.8 °F -4.0 °F 67% 30.51 in 10.0 mi WNW 12.7 mph 18.4 mph N/A   Overcast
12:55 PM 5.7 °F -11.4 °F -4.2 °F 64% 30.52 in 10.0 mi West 13.8 mph 17.3 mph N/A   Scattered Clouds
1:15 PM 5.7 °F -12.0 °F -3.8 °F 65% 30.51 in 10.0 mi WNW 15.0 mph - N/A   Scattered Clouds
1:35 PM 5.5 °F -12.9 °F -4.2 °F 64% 30.52 in 10.0 mi WNW 16.1 mph - N/A   Scattered Clouds
1:55 PM 5.4 °F -13.1 °F -4.5 °F 64% 30.52 in 10.0 mi WNW 16.1 mph - N/A   Clear
2:15 PM 5.2 °F -14.5 °F -4.5 °F 64% 30.53 in 10.0 mi WNW 18.4 mph - N/A   Clear
2:35 PM 4.8 °F -15.5 °F -4.9 °F 64% 30.53 in 10.0 mi WNW 19.6 mph - N/A   Clear
2:55 PM 4.5 °F -14.3 °F -5.1 °F 65% 30.54 in 10.0 mi WNW 16.1 mph 23.0 mph N/A   Clear
3:15 PM 4.1 °F -15.9 °F -5.1 °F 66% 30.55 in 10.0 mi WNW 18.4 mph - N/A   Clear
3:35 PM 4.1 °F -15.3 °F -5.3 °F 65% 30.56 in 10.0 mi WNW 17.3 mph - N/A   Clear
3:55 PM 3.9 °F -16.1 °F -5.8 °F 64% 30.56 in 10.0 mi WNW 18.4 mph 21.9 mph N/A   Clear
4:15 PM 3.6 °F -14.8 °F -6.0 °F 65% 30.57 in 10.0 mi WNW 15.0 mph - N/A   Clear
4:35 PM 3.2 °F -15.9 °F -6.0 °F 66% 30.57 in 10.0 mi WNW 16.1 mph - N/A   Clear
4:55 PM 2.3 °F -15.0 °F -6.2 °F 68% 30.58 in 10.0 mi WNW 12.7 mph - N/A   Clear
5:15 PM 1.8 °F -15.7 °F -6.7 °F 68% 30.59 in 10.0 mi WNW 12.7 mph - N/A   Clear
5:35 PM 1.4 °F -14.5 °F -6.7 °F 69% 30.59 in 10.0 mi WNW 10.4 mph - N/A   Clear
5:55 PM 0.9 °F -16.0 °F -6.7 °F 71% 30.59 in 10.0 mi WNW 11.5 mph - N/A   Clear
6:15 PM 0.5 °F -15.6 °F -7.1 °F 70% 30.59 in 10.0 mi West 10.4 mph - N/A   Clear
6:35 PM 0.1 °F -14.0 °F -7.6 °F 70% 30.59 in 10.0 mi West 8.1 mph - N/A   Clear
6:55 PM -0.9 °F -17.4 °F -8.1 °F 72% 30.60 in 10.0 mi West 10.4 mph - N/A   Clear
7:15 PM -1.3 °F -17.8 °F -8.5 °F 72% 30.59 in 10.0 mi West 10.4 mph - N/A   Clear
7:35 PM -1.7 °F -17.3 °F -9.4 °F 70% 30.59 in 10.0 mi West 9.2 mph - N/A   Clear
7:55 PM -2.2 °F -18.0 °F -9.6 °F 71% 30.59 in 10.0 mi West 9.2 mph - N/A   Clear
8:35 PM -4.0 °F -22.1 °F -10.5 °F 74% 30.58 in 10.0 mi West 11.5 mph - N/A   Clear
8:55 PM -4.2 °F -20.4 °F -10.7 °F 74% 30.58 in 10.0 mi West 9.2 mph - N/A   Clear
9:15 PM -4.4 °F -21.6 °F -11.2 °F 72% 30.59 in 10.0 mi West 10.4 mph - N/A   Clear
9:55 PM -5.1 °F -21.5 °F -12.1 °F 72% 30.58 in 10.0 mi West 9.2 mph - N/A   Clear
10:15 PM -5.8 °F -21.2 °F -13.0 °F 71% 30.58 in 10.0 mi West 8.1 mph - N/A   Clear
10:35 PM -6.3 °F -20.6 °F -13.2 °F 72% 30.57 in 10.0 mi West 6.9 mph - N/A   Clear
10:55 PM -6.5 °F -20.8 °F -13.7 °F 71% 30.57 in 10.0 mi West 6.9 mph - N/A   Clear
11:15 PM -7.2 °F -20.1 °F -14.1 °F 72% 30.56 in 10.0 mi West 5.8 mph - N/A   Clear
11:35 PM -7.6 °F -20.6 °F -14.4 °F 72% 30.56 in 10.0 mi WSW 5.8 mph - N/A   Clear
11:55 PM -8.0 °F -22.5 °F -14.8 °F 72% 30.54 in 10.0 mi WSW 6.9 mph - N/A   Clear